• MPC Preparation (Info)

  • MPEC 2005-V02 : 2005 UP64

    The following Minor Planet Electronic Circular may be linked-to from your own Web pages, but must not otherwise be redistributed electronically.

    A form allowing access to any MPEC is at the bottom of this page.


    Read MPEC 2005-V01 Read MPEC 2005-V03


    M.P.E.C. 2005-V02                                Issued 2005 Nov. 1, 18:16 UT
    
         The Minor Planet Electronic Circulars contain information on unusual
             minor planets and routine data on comets.  They are published
       on behalf of Commission 20 of the International Astronomical Union by the
              Minor Planet Center, Smithsonian Astrophysical Observatory,
                              Cambridge, MA 02138, U.S.A.
    
                      Supported in part by the Brinson Foundation
                      Supported in part by the TABASGO Foundation
                 Prepared using the Tamkin Foundation Computer Network
    
                                  MPC@CFA.HARVARD.EDU
              URL http://cfa-www.harvard.edu/iau/mpc.html  ISSN 1523-6714
    
                                       2005 UP64
    
    Observations:
         K05U64P* C2005 10 29.27256 01 05 35.52 +03 50 44.1          21.7 V EV002G96
         K05U64P  C2005 10 29.27896 01 05 35.12 +03 50 34.3          22.2 V EV002G96
         K05U64P  C2005 10 29.28510 01 05 34.72 +03 50 24.9          21.3 V EV002G96
         K05U64P  C2005 10 29.29139 01 05 34.33 +03 50 16.2          22.0 V EV002G96
         K05U64P  C2005 10 29.33700 01 05 31.27 +03 49 07.1          21.9 V EV002G96
         K05U64P  C2005 10 29.34463 01 05 30.76 +03 48 55.0          22.1 V EV002G96
         K05U64P  C2005 10 29.35211 01 05 30.26 +03 48 43.9          21.1 V EV002G96
         K05U64P  C2005 10 29.35953 01 05 29.83 +03 48 33.0          21.3 V EV002G96
         K05U64P  C2005 10 31.22980 01 03 33.79 +03 01 37.2          21.4 V EV002G96
         K05U64P  C2005 10 31.23619 01 03 33.32 +03 01 26.5                 EV002G96
         K05U64P  C2005 10 31.24245 01 03 32.99 +03 01 17.7                 EV002G96
         K05U64P  C2005 10 31.24873 01 03 32.55 +03 01 07.8                 EV002G96
         K05U64P  C2005 11 01.24617 01 02 31.77 +02 36 08.9          21.2 V EV002G96
         K05U64P  C2005 11 01.25220 01 02 31.45 +02 36 00.1          20.9 V EV002G96
         K05U64P  C2005 11 01.25830 01 02 30.98 +02 35 51.0          21.4 V EV002G96
         K05U64P  C2005 11 01.26439 01 02 30.66 +02 35 41.7          21.5 V EV002G96
         K05U64P  C2005 11 01.31086 01 02 27.70 +02 34 32.1          21.3 V EV002G96
         K05U64P  C2005 11 01.32000 01 02 27.06 +02 34 18.5          21.1 V EV002G96
         K05U64P  C2005 11 01.32911 01 02 26.55 +02 34 05.1          21.2 V EV002G96
         K05U64P  C2005 11 01.33824 01 02 25.94 +02 33 51.3          21.6 V EV002G96
    
    Observer details:
    G96 Mt. Lemmon Survey.  Observers E. J. Christensen, S. M. Larson,
        R. A. Kowalski.  Measurers E. C. Beshore, E. J. Christensen, G. J. Garradd,
        A. D. Grauer, R. E. Hill, R. A. Kowalski, S. M. Larson, R. H. McNaught.
        1.5-m reflector, 1.5-m reflector + CCD.
    
    Orbital elements:
    2005 UP64
    Epoch 2005 Aug. 18.0 TT = JDT 2453600.5                 MPC
    M 311.88993              (2000.0)            P               Q
    n   0.22789808     Peri.  279.47915     -0.50917348     -0.84716459
    a   2.6544565      Node   203.15388     +0.85961640     -0.50927863
    e   0.5718498      Incl.   22.71551     -0.04245018     -0.15148409
    P   4.32           H   19.6           G   0.15           U   8
    Residuals in seconds of arc
    051029 G96  0.4-  0.1+    051029 G96  0.5+  0.1+    051101 G96  0.6-  0.1-
    051029 G96  0.0   0.1-    051031 G96  0.2+  0.6+    051101 G96  0.4+  0.2-
    051029 G96  0.1+  0.2-    051031 G96  0.6-  0.4-    051101 G96  0.3+  0.0
    051029 G96  0.5+  0.5+    051031 G96  0.5+  0.2+    051101 G96  0.6-  0.1+
    051029 G96  0.1-  0.2+    051031 G96  0.0   0.3-    051101 G96  0.4+  0.4+
    051029 G96  0.3-  0.4-    051101 G96  0.4-  0.4-    051101 G96  0.1-  0.3+
    051029 G96  0.4-  0.2-    051101 G96  0.6+  0.1-
    
    Ephemeris:
    2005 UP64                a,e,i = 2.65, 0.57, 23                  q = 1.1365
    Date    TT    R. A. (2000) Decl.     Delta      r     Elong.  Phase     V
    2005 10 27    01 08.01   +04 47.8    0.938    1.913   163.8     8.4    21.4
    2005 11 06    00 57.98   +00 38.7    0.915    1.839   149.6    15.8    21.6
    2005 11 16    00 50.47   -03 11.6    0.914    1.766   136.1    22.8    21.7
    2005 11 26    00 46.68   -06 24.4    0.931    1.692   123.8    29.0    21.9
    2005 12 06    00 47.22   -08 51.6    0.959    1.619   112.8    34.1    22.0
    
    Kyle E. Smalley              (C) Copyright 2005 MPC           M.P.E.C. 2005-V02
    

    Read MPEC 2005-V01 Read MPEC 2005-V03


    MPEC number:

    Enter an MPEC number in one of the following forms:

    • 1997-B01 (the full form)
    • J97B01 (the packed version of the full form)
    • B01 (the abbreviated form)